マクノート彗星

260P/McNaught (2019)

English version
Home page
Updated on August 15, 2020

---------------------------------------------------------------------

・ プロフィール

・ 写真集

・ 軌道要素

Epoch 2019 Aug. 25.0 TT = JDT 2458720.5
T 2019 Sept.  9.95583 TT                                Rudenko
q   1.4167143            (2000.0)            P               Q
n   0.14302599     Peri.   18.38844     +0.98888131     -0.14075696
a   3.6212575      Node   349.35531     +0.08127718     +0.78172975
e   0.6087784      Incl.   15.05220     +0.12453018     +0.60752454
P   6.89
From 6382 observations 2005 May 20-2020 Feb. 25, mean residual 0".6.

・ 星図

・ 光度変化

        m1 = 9.0 + 5 logΔ + 25.0 log r(t - 15)

---------------------------------------------------------------------

軌道要素はM.P.E.C. 2020-F67に掲載されたものです。
星図はステラナビゲータ Ver.8 (アストロアーツ) で作成したものです。
光度グラフはComet for Windowsで作成したものです。

---------------------------------------------------------------------

Copyright(C) Seiichi Yoshida (comet@aerith.net). All rights reserved.